Showing default

JILIN-01 GAOFEN 2B, 44836

Orbit data source: Space-Track

JILIN-01 GAOFEN 2B, 44836 is a payload satellite owned by Changguang WJ (CN) in SSO that was launched on Sat, 07 Dec 2019 UTC via a KUAIZHOU-1A launch vehicle from the Taiyaun Space Center, China (TSC). Payload-class satellites include a variety of spacecraft equipped with specific instruments for various scientific and technological missions. These include communications satellites like Starlink; space stations such as the ISS; scientific satellites like the Hubble; Earth observation satellites from companies like Planet Labs, Umbra, and HawkEye 360; GPS; miniature CubeSats for education and research; and military/defense satellites.

Loading next visibility...
Identifier
44836, 2019-086A
Orbit
SSO
Country
Flag of CNCN / PRC
Related business
Manufacturer
Changguang WJ
Mission
Operational Commercial Imaging
Bus & Motor
JL-1, Unknown motor
Mass
230 kg wet, 230 kg dry
Launch date (UTC)
2019-12-07 (7 years ago)
Launch vehicle
KUAIZHOU-1A
Launch site
Taiyaun Space Center, China (TSC)
Object type
Payload
Rocket body
Debris
Shape & HBR
Box + 2 Pan, 0.8 m
Radar Cross Section
2.000 m², Large (>1 m²)

Expand to show TLE details & history
Last TLE update: 6 hours ago

TLE from 6 hours ago
0 JILIN-01 GAOFEN 2B
1 44836U 19086A   26163.80430573  .00006396  00000-0  29377-3 0  9992
2 44836  97.4889 235.8225 0013209 340.8438  19.2299 15.20665244359828
Epoch: 2026-06-12T19:18Z
TLE epoch observation values (Epoch: 2026-06-12T19:18:12.015Z)
Latitude
0.00002°
Longitude
45.14394°
Altitude
498.338 km
Speed
7.62 km/s
True Right ascension
15h 43m 17s
True Declination
0° 00' 00"
Sunlit
Object was in full shadow at epoch
Visualization orbit readout
Latitude
Unknown
Longitude
Unknown
Altitude
Unknown
Speed
Unknown
Apparent Right ascension
Unknown
Apparent Declination
Unknown
Sunlit
N/A
Visualization observer readout
Local Sidereal Time
11:26:21
Azimuth
Unknown
Elevation
Unknown
Doppler factor
Unknown
Orbital elements
Apogee altitude
509.888 km
Perigee altitude
491.715 km
Semi-major axis
6,878.938 km
Eccentricity
0.00132
Inclination
97.4889°
RAAN
235.8225°
Arg. of periapsis
340.8438°
True anomaly
19.27983°
Mean anomaly
19.2299°
Eccentric anomaly
19.25486°
Mean motion
3.80418 °/min
Orbital period
94.63 mins
BSTAR
0.00029377
Loading maneuver chart data...
Computing Atmospheric mass density...
Loading historical data...
Loading historical data...
Loading historical data...
Loading historical data...
Loading historical data...
Loading historical data...
Loading historical data...
Other satellites on launch #86 in the year 2019 (2019-12-07 UTC)

Documentation

Showing up to 5 results
|